Date String (YYYY-MM-DD hh:mm:ss) UTC,Instrument flags,absolute air pressure of the measurement (hPa),sample flow rate (lpm),inlet stack bypass flow (lpm),air temperature of the measurement (°C),ambient temperature measured by the external sensor (°C),aerosol sample conditioner tube jacket temperature (°C),OPC LED temperature (°C),internal box temperature (°C),relative humidity of the measurement (%),span deviation,mass concentration of particles derived from Lorenz-Mie calculation of OPC scattering (μg/m³),mass concentration of particles derived from Lorenz-Mie calculation of OPC scattering (μg/m³),mass concentration of particles derived from Lorenz-Mie calculation of OPC scattering (μg/m³)
DateTimeUTC,F1_M11,P_M11,Q1_M11,Q2_M11,T1_M11,T2_M11,T3_M11,T4_M11,T5_M11,U1_M11,ZSPAN_M11,X2_M11,X0_M11,X1_M11
2023-07-07 08:00:00,SystemResetWarning,0830.2,5.00,000.00,029.4,027.6,000.0,038.0,030.9,25.3,0000.0,0005.60,0009.93,0005.02
2023-07-07 08:01:00,SystemResetWarning,0830.2,5.00,000.00,029.4,027.7,000.0,038.0,030.9,25.2,0000.0,0005.54,0009.59,0005.01
2023-07-07 08:02:00,SystemResetWarning,0830.2,4.99,000.00,029.4,027.9,000.0,038.0,030.9,25.0,0000.0,0005.51,0009.24,0005.00
2023-07-07 08:03:00,SystemResetWarning,0830.2,5.00,000.00,029.4,028.0,000.0,038.0,031.0,24.8,0000.0,0005.50,0008.87,0004.99
2023-07-07 08:04:00,SystemResetWarning,0830.1,5.00,000.00,029.4,028.0,000.0,038.0,031.0,24.8,0000.0,0005.51,0008.82,0004.99
2023-07-07 08:05:00,SystemResetWarning,0830.1,5.00,000.00,029.5,028.1,000.0,038.0,031.0,24.9,0000.0,0005.52,0008.89,0005.00
2023-07-07 08:06:00,SystemResetWarning,0830.1,5.01,000.00,029.5,028.2,000.0,038.0,031.0,24.9,0000.0,0005.58,0009.39,0005.02
2023-07-07 08:07:00,SystemResetWarning,0830.0,5.01,000.00,029.5,028.2,000.0,038.0,031.1,25.1,0000.0,0005.59,0009.82,0005.03
2023-07-07 08:08:00,SystemResetWarning,0830.1,5.01,000.00,029.5,028.2,000.0,038.0,031.1,25.1,0000.0,0005.60,0009.86,0005.02
2023-07-07 08:09:00,SystemResetWarning,0830.0,5.00,000.00,029.5,028.3,000.0,038.0,031.1,25.1,0000.0,0005.57,0009.78,0005.01
2023-07-07 08:10:00,SystemResetWarning,0830.0,5.00,000.00,029.6,028.3,000.0,038.1,031.1,25.4,0000.0,0005.54,0009.61,0005.01
2023-07-07 08:11:00,SystemResetWarning,0830.0,5.00,000.00,029.6,028.3,000.0,038.1,031.2,25.3,0000.0,0005.53,0009.76,0005.01
2023-07-07 08:12:00,SystemResetWarning,0830.0,5.00,000.00,029.6,028.4,000.0,038.1,031.2,25.4,0000.0,0005.55,0009.85,0005.00
2023-07-07 08:13:00,SystemResetWarning,0830.0,5.00,000.00,029.6,028.4,000.0,038.1,031.2,25.1,0000.0,0005.52,0009.77,0004.99
2023-07-07 08:14:00,SystemResetWarning,0830.0,5.00,000.00,029.6,028.4,000.0,038.1,031.2,25.3,0000.0,0005.54,0009.80,0004.98
2023-07-07 08:15:00,SystemResetWarning,0830.0,5.00,000.00,029.7,028.4,000.0,038.1,031.2,25.2,0000.0,0005.52,0009.72,0004.98
2023-07-07 08:16:00,SystemResetWarning,0830.0,5.00,000.00,029.7,028.4,000.0,038.2,031.2,24.9,0000.0,0005.48,0009.49,0004.96
2023-07-07 08:17:00,SystemResetWarning,0830.0,5.00,000.00,029.7,028.4,000.0,038.2,031.3,25.0,0000.0,0005.47,0009.15,0004.95
2023-07-07 08:18:00,SystemResetWarning,0830.0,5.00,000.00,029.7,028.5,000.0,038.2,031.3,25.0,0000.0,0005.46,0008.56,0004.95
2023-07-07 08:19:00,SystemResetWarning,0830.1,5.00,000.00,029.7,028.5,000.0,038.2,031.3,25.0,0000.0,0005.46,0008.61,0004.96
2023-07-07 08:20:00,SystemResetWarning,0830.0,5.00,000.00,029.7,028.5,000.0,038.2,031.3,25.0,0000.0,0005.46,0008.77,0004.97
2023-07-07 08:21:00,SystemResetWarning,0830.1,5.00,000.00,029.8,028.5,000.0,038.3,031.3,25.0,0000.0,0005.46,0008.78,0004.97
2023-07-07 08:22:00,SystemResetWarning,0830.1,5.00,000.00,029.8,028.6,000.0,038.3,031.3,25.1,0000.0,0005.46,0008.72,0004.98
2023-07-07 08:23:00,SystemResetWarning,0830.0,5.00,000.00,029.8,028.6,000.0,038.3,031.3,24.9,0000.0,0005.46,0008.63,0004.99
2023-07-07 08:24:00,SystemResetWarning,0830.0,5.00,000.00,029.8,028.6,000.0,038.3,031.4,24.9,0000.0,0005.49,0008.71,0005.00
2023-07-07 08:25:00,SystemResetWarning,0830.1,5.00,000.00,029.8,028.6,000.0,038.3,031.4,25.1,0000.0,0005.51,0008.77,0005.02
2023-07-07 08:26:00,SystemResetWarning,0830.1,5.00,000.00,029.8,028.6,000.0,038.3,031.4,25.0,0000.0,0005.50,0009.08,0005.02
2023-07-07 08:27:00,SystemResetWarning,0830.1,4.99,000.00,029.9,028.3,000.0,038.3,031.4,25.1,0000.0,0005.55,0009.46,0005.04
2023-07-07 08:28:00,SystemResetWarning,0830.0,5.00,000.00,029.8,026.3,000.0,038.2,031.2,25.0,0000.0,0005.52,0009.98,0005.05
2023-07-07 08:29:00,SystemResetWarning,0830.0,5.00,000.00,029.7,025.2,000.0,038.1,031.0,25.0,0000.0,0005.52,0009.97,0005.07
2023-07-07 08:30:00,SystemResetWarning,0830.0,5.01,000.00,029.6,025.1,000.0,038.1,030.6,25.3,0000.0,0005.55,0010.00,0005.10
2023-07-07 08:31:00,SystemResetWarning,0830.0,5.01,000.00,029.5,025.4,000.0,038.1,030.6,25.6,0000.0,0005.58,0009.79,0005.13
2023-07-07 08:32:00,SystemResetWarning,0830.0,4.99,000.00,029.4,025.9,000.0,038.1,030.6,25.9,0000.0,0005.60,0009.87,0005.15
2023-07-07 08:33:00,SystemResetWarning,0830.0,5.00,000.00,029.4,026.3,000.0,038.1,030.7,25.6,0000.0,0005.63,0010.26,0005.17
2023-07-07 08:34:00,SystemResetWarning,0830.0,5.00,000.00,029.4,026.6,000.0,038.1,030.7,25.6,0000.0,0005.67,0010.42,0005.19
2023-07-07 08:35:00,SystemResetWarning,0830.0,4.98,000.00,029.4,026.9,000.0,038.0,030.7,25.5,0000.0,0005.71,0010.46,0005.23
2023-07-07 08:36:00,SystemResetWarning,0830.1,5.00,000.00,029.4,027.2,000.0,038.0,030.8,25.6,0000.0,0005.74,0010.99,0005.24
2023-07-07 08:37:00,SystemResetWarning,0830.1,5.00,000.00,029.4,027.4,000.0,038.0,030.8,26.0,0000.0,0005.76,0010.69,0005.26
2023-07-07 08:38:00,SystemResetWarning,0830.1,5.01,000.00,029.4,027.5,000.0,038.0,030.9,25.8,0000.0,0005.78,0010.57,0005.28
2023-07-07 08:39:00,SystemResetWarning,0830.1,5.01,000.00,029.4,027.6,000.0,038.0,030.9,25.7,0000.0,0005.82,0010.01,0005.30
2023-07-07 08:40:00,SystemResetWarning,0830.1,4.99,000.00,029.4,027.8,000.0,038.0,030.9,25.7,0000.0,0005.83,0010.06,0005.30
2023-07-07 08:41:00,SystemResetWarning,0830.1,5.00,000.00,029.4,027.9,000.0,038.0,030.9,25.7,0000.0,0005.83,0010.03,0005.30
2023-07-07 08:42:00,SystemResetWarning,0830.1,4.99,000.00,029.4,027.9,000.0,038.0,031.0,25.8,0000.0,0005.82,0009.99,0005.30
2023-07-07 08:43:00,SystemResetWarning,0830.0,5.00,000.00,029.5,028.0,000.0,038.0,031.0,25.7,0000.0,0005.85,0010.00,0005.32
2023-07-07 08:44:00,SystemResetWarning,0830.0,5.00,000.00,029.5,028.1,000.0,038.0,031.0,25.9,0000.0,0005.87,0009.72,0005.34
2023-07-07 08:45:00,SystemResetWarning,0830.0,5.00,000.00,029.5,028.1,000.0,038.0,031.0,25.5,0000.0,0005.83,0009.52,0005.33
2023-07-07 08:46:00,SystemResetWarning,0830.0,5.00,000.00,029.5,028.2,000.0,038.0,031.0,25.5,0000.0,0005.85,0009.58,0005.34
2023-07-07 08:47:00,SystemResetWarning,0830.0,4.99,000.00,029.5,028.2,000.0,038.1,031.1,25.3,0000.0,0005.85,0009.17,0005.35
2023-07-07 08:48:00,SystemResetWarning,0830.0,5.00,000.00,029.5,028.2,000.0,038.1,031.1,25.2,0000.0,0005.86,0009.20,0005.35
2023-07-07 08:49:00,SystemResetWarning,0830.0,5.00,000.00,029.6,028.2,000.0,038.1,031.1,25.5,0000.0,0005.84,0009.14,0005.34
2023-07-07 08:50:00,SystemResetWarning,0830.0,5.00,000.00,029.6,028.3,000.0,038.1,031.1,25.2,0000.0,0005.84,0009.15,0005.34
2023-07-07 08:51:00,SystemResetWarning,0830.1,4.99,000.00,029.6,028.3,000.0,038.1,031.1,25.2,0000.0,0005.88,0009.21,0005.35
2023-07-07 08:52:00,SystemResetWarning,0830.0,4.99,000.00,029.6,028.3,000.0,038.1,031.2,25.4,0000.0,0005.89,0009.23,0005.34
2023-07-07 08:53:00,SystemResetWarning,0830.0,5.00,000.00,029.6,028.4,000.0,038.1,031.2,25.3,0000.0,0005.89,0009.27,0005.34
2023-07-07 08:54:00,SystemResetWarning,0830.0,5.00,000.00,029.7,028.4,000.0,038.1,031.2,25.3,0000.0,0005.87,0009.21,0005.33
2023-07-07 08:55:00,SystemResetWarning,0830.0,5.00,000.00,029.7,028.4,000.0,038.2,031.2,25.2,0000.0,0005.85,0009.11,0005.32
2023-07-07 08:56:00,SystemResetWarning,0830.0,5.01,000.00,029.7,028.4,000.0,038.2,031.3,25.0,0000.0,0005.87,0009.18,0005.31
2023-07-07 08:57:00,SystemResetWarning,0830.0,5.01,000.00,029.7,028.5,000.0,038.2,031.3,24.9,0000.0,0005.85,0009.17,0005.29
2023-07-07 08:58:00,SystemResetWarning,0830.0,4.99,000.00,029.7,028.5,000.0,038.2,031.3,24.9,0000.0,0005.82,0009.03,0005.27
2023-07-07 08:59:00,SystemResetWarning,0830.0,4.99,000.00,029.7,028.5,000.0,038.2,031.3,24.8,0000.1,0005.82,0009.16,0005.28
